Probability
42 32 26 32 58 29 0 0 3 3 6 13 13 13 16 26 32 74 90 90 81 94 100 100 100 100 100 100 100 100 100 100 100 100 100 100 100 100 100 100 100 100 97 97 97 94 94 90 90
26 26 19 45 45 3 0 0 0 3 6 10 6 16 19 58 77 87 90 90 84 97 100 100 100 100 100 100 100 100 100 100 100 100 100 100 100 100 100 100 100 100 97 100 94 94 94 94 97
23 16 32 45 13 0 0 0 0 3 3 6 16 26 55 77 84 97 94 90 87 97 100 100 100 100 100 100 100 100 100 100 100 100 100 100 100 100 100 100 100 97 97 100 100 97 97 100 97
10 23 42 35 3 0 6 6 0 3 3 10 16 45 77 90 90 94 94 87 87 87 100 100 100 100 100 100 100 100 100 100 100 100 100 100 100 100 100 100 97 97 97 97 97 100 100 100 100
16 26 23 10 0 0 0 3 6 6 13 16 23 52 90 94 97 97 97 87 84 84 100 100 100 100 100 100 100 100 100 100 100 100 100 100 100 100 100 97 97 97 97 97 94 94 97 100 100
13 13 10 0 0 0 6 6 13 16 23 26 26 61 90 97 97 100 97 94 81 84 97 100 100 100 100 100 100 100 100 100 100 100 100 100 100 100 97 97 97 97 97 97 97 97 97 97 97
6 10 6 0 0 0 0 10 16 19 35 52 55 68 94 97 97 100 94 94 94 90 97 100 100 100 100 100 100 100 100 100 100 100 100 100 100 100 100 100 100 97 97 97 97 97 97 97 97
6 6 3 0 3 0 0 10 16 35 52 68 71 90 100 94 100 100 97 97 94 94 94 97 100 100 100 100 100 100 100 100 100 100 100 100 100 100 100 100 100 100 97 100 97 97 97 97 97
10 6 0 0 0 0 3 10 23 48 61 77 87 87 94 94 100 100 97 94 94 94 94 97 97 97 97 94 100 100 100 100 100 100 100 100 100 100 100 100 97 97 97 97 97 97 97 97 100
6 6 3 0 0 0 3 10 26 39 61 84 84 90 94 97 100 97 94 94 94 97 97 97 97 97 97 97 100 100 94 97 100 100 100 97 100 100 97 97 97 97 97 97 97 97 97 97 97
0 3 3 0 0 3 3 16 35 39 71 84 81 87 94 94 94 94 97 94 94 90 94 97 94 97 97 97 94 90 90 90 90 97 97 94 94 94 90 94 94 94 94 97 97 97 94 97 97
0 0 0 0 0 3 6 26 61 68 81 84 81 94 94 90 94 87 87 84 87 87 90 90 94 94 90 97 94 90 90 94 94 97 97 94 90 90 90 94 87 87 90 94 97 100 94 97 97
0 0 0 10 10 19 29 45 65 74 84 87 87 87 90 87 87 84 81 81 81 77 77 77 77 84 87 90 87 84 87 87 84 87 84 84 87 90 87 87 87 84 81 94 97 94 90 90 94
0 0 6 19 35 48 58 71 77 81 84 81 81 84 84 84 84 84 81 81 81 81 77 74 74 71 74 77 81 71 74 77 71 65 61 74 81 81 84 77 81 81 77 74 81 81 87 90 84
0 3 16 23 52 61 71 77 77 77 81 74 74 74 74 71 71 71 74 74 74 74 68 68 71 65 68 61 58 52 55 52 48 55 52 58 61 68 74 71 74 65 52 68 74 68 71 71 65
0 0 6 32 58 65 68 74 71 68 71 68 58 61 65 71 65 58 61 61 58 55 61 55 48 52 55 52 58 58 58 58 55 55 55 45 39 42 58 68 61 52 58 55 65 61 65 55 58
0 0 3 32 52 58 65 77 58 45 45 52 45 48 39 42 48 42 39 42 48 48 52 45 45 45 45 45 42 39 35 45 39 39 39 32 29 32 35 39 48 42 42 39 35 48 55 48 58
0 0 3 19 55 58 68 68 48 45 39 42 42 35 35 32 35 35 39 35 35 45 42 45 48 48 39 29 26 26 23 23 29 29 35 29 23 19 16 23 29 32 29 29 32 39 39 55 52
0 3 10 39 55 61 52 55 39 35 39 35 32 32 39 39 39 32 29 26 26 32 32 29 35 29 26 19 16 16 13 13 19 16 13 19 16 13 19 19 19 23 26 26 16 23 23 32 39
0 3 23 55 55 48 48 42 39 29 35 32 26 26 29 35 39 35 29 32 26 26 23 23 19 13 13 13 19 19 16 6 10 6 6 6 6 6 6 13 16 13 19 10 13 23 16 16 6
0 3 13 42 48 42 45 39 39 29 26 32 35 26 19 23 29 26 23 23 16 13 10 6 6 6 10 10 6 6 13 10 6 0 3 3 0 3 6 3 10 13 13 13 6 10 13 6 16
3 3 13 19 35 26 35 10 39 35 35 26 29 29 19 23 23 19 13 13 13 13 13 10 10 10 10 6 3 10 6 6 6 3 3 0 0 0 0 0 3 3 6 3 3 3 10 10 13
6 3 19 16 23 19 13 6 16 26 19 23 23 23 23 26 16 16 6 10 10 3 6 10 6 6 6 3 3 6 3 3 0 3 3 3 0 0 0 0 0 0 0 3 3 3 10 23 13
6 13 13 10 3 0 3 3 0 23 23 16 13 13 19 16 10 3 6 10 6 3 3 0 3 3 3 0 0 0 0 0 0 3 0 0 0 0 0 0 0 0 3 3 3 3 3 6 6
3 0 0 0 3 0 3 0 3 6 6 6 6 6 6 6 10 6 13 6 0 0 0 0 0 6 0 0 0 0 0 0 0 0 0 0 0 0 0 0 0 0 3 0 3 3 3 6 3
3 0 0 0 0 0 3 0 6 3 6 6 6 6 3 3 3 3 6 0 3 3 3 3 0 3 0 0 0 0 0 0 0 0 0 0 0 0 0 0 0 0 0 0 0 3 3 0 6
3 0 0 0 0 0 0 3 13 6 3 6 0 3 3 3 0 0 0 3 3 3 3 0 0 0 0 0 0 0 0 0 0 0 0 0 0 0 0 0 0 0 0 0 3 0 0 0 3
0 0 0 0 0 0 0 0 3 10 6 3 0 0 0 3 3 0 3 3 3 0 0 0 0 0 0 0 0 0 0 0 0 0 0 0 0 0 0 0 0 0 0 0 0 3 0 0 3
0 0 0 0 0 0 0 0 0 6 6 3 0 0 0 0 0 0 3 3 3 0 0 0 0 0 0 0 0 0 0 0 0 0 0 0 0 0 0 0 0 0 0 0 0 0 0 0 0
0 0 0 0 0 0 0 0 0 3 0 0 0 0 0 0 0 0 0 0 0 0 0 0 0 0 0 0 0 0 0 0 0 0 0 0 0 0 0 0 0 0 0 0 0 0 0 0 0
Height
5933 5932 5931 5931 5931 5931 5930 5929 5927 5926 5925 5924 5923 5922 5922 5921 5921 5922 5919 5916 5916 5915 5914 5914 5913 5913 5913 5912 5912 5911 5910 5910 5909 5908 5908 5908 5908 5907 5907 5907 5906 5906 5906 5906 5906 5905 5905 5905 5905
5932 5931 5931 5930 5930 5930 5929 5927 5926 5925 5925 5923 5922 5921 5920 5919 5918 5917 5916 5915 5914 5913 5912 5912 5912 5912 5911 5911 5910 5910 5909 5908 5908 5907 5907 5907 5907 5906 5906 5906 5906 5906 5905 5905 5905 5905 5905 5905 5905
5930 5929 5930 5929 5928 5928 5926 5925 5924 5923 5923 5922 5921 5920 5919 5918 5917 5916 5915 5914 5913 5912 5911 5910 5910 5910 5909 5909 5908 5908 5907 5907 5906 5906 5906 5905 5905 5905 5905 5905 5905 5905 5905 5904 5904 5904 5904 5904 5904
5928 5927 5927 5927 5926 5924 5923 5923 5922 5921 5921 5920 5919 5918 5917 5916 5915 5914 5913 5912 5911 5910 5909 5908 5907 5907 5907 5906 5906 5906 5905 5905 5905 5904 5904 5904 5904 5904 5903 5903 5903 5903 5903 5903 5903 5903 5903 5903 5904
5924 5924 5924 5924 5922 5920 5920 5919 5919 5919 5918 5918 5917 5916 5915 5914 5913 5912 5911 5910 5909 5908 5907 5906 5905 5905 5904 5904 5903 5903 5903 5903 5902 5902 5902 5902 5902 5901 5901 5901 5901 5902 5902 5902 5902 5902 5902 5902 5902
5921 5921 5921 5921 5918 5917 5916 5916 5916 5916 5916 5915 5915 5914 5913 5912 5911 5910 5909 5908 5907 5906 5905 5903 5903 5902 5902 5901 5901 5900 5900 5900 5899 5899 5899 5899 5899 5899 5899 5899 5899 5899 5899 5899 5900 5900 5900 5900 5901
5917 5916 5916 5916 5914 5913 5912 5913 5913 5913 5913 5913 5913 5912 5911 5910 5909 5908 5907 5906 5904 5903 5902 5901 5900 5899 5899 5898 5898 5897 5897 5897 5896 5896 5896 5896 5896 5896 5896 5896 5896 5896 5896 5897 5897 5897 5897 5898 5898
5911 5912 5911 5910 5909 5908 5908 5908 5909 5910 5910 5910 5910 5909 5908 5907 5906 5905 5904 5903 5902 5901 5900 5898 5897 5896 5895 5895 5894 5894 5893 5893 5893 5892 5892 5892 5892 5892 5892 5892 5892 5893 5893 5893 5893 5894 5894 5894 5895
5906 5907 5906 5905 5904 5903 5903 5904 5905 5906 5906 5907 5906 5906 5905 5905 5904 5903 5902 5900 5899 5898 5897 5895 5894 5892 5891 5891 5890 5889 5889 5889 5888 5888 5888 5888 5888 5888 5888 5888 5888 5889 5889 5889 5890 5890 5891 5891 5891
5901 5901 5900 5899 5898 5898 5898 5899 5900 5902 5902 5903 5903 5903 5902 5901 5900 5900 5898 5897 5896 5895 5893 5892 5890 5889 5887 5886 5885 5885 5884 5884 5883 5883 5882 5882 5882 5882 5883 5883 5884 5884 5885 5885 5886 5886 5887 5887 5887
5895 5895 5894 5893 5893 5894 5894 5895 5896 5897 5898 5898 5898 5898 5898 5898 5897 5896 5895 5893 5892 5891 5890 5888 5887 5885 5884 5882 5881 5880 5879 5879 5878 5877 5877 5876 5877 5877 5877 5878 5878 5879 5880 5880 5881 5881 5882 5882 5883
5891 5890 5889 5888 5888 5889 5890 5891 5892 5893 5894 5894 5894 5895 5895 5894 5893 5892 5891 5889 5888 5887 5885 5884 5883 5881 5880 5878 5877 5875 5874 5873 5873 5872 5871 5871 5871 5871 5871 5872 5872 5873 5874 5874 5875 5876 5877 5877 5878
5887 5886 5885 5884 5885 5885 5886 5886 5887 5888 5889 5890 5890 5891 5890 5890 5889 5888 5887 5885 5884 5882 5881 5880 5878 5877 5875 5874 5872 5870 5869 5868 5868 5867 5866 5865 5865 5865 5865 5865 5866 5867 5868 5869 5870 5870 5871 5871 5872
5884 5883 5882 5882 5881 5881 5882 5883 5884 5884 5884 5885 5886 5886 5886 5886 5885 5883 5882 5880 5879 5878 5876 5875 5873 5871 5869 5868 5866 5865 5864 5863 5862 5862 5860 5859 5859 5858 5858 5859 5860 5861 5862 5862 5863 5864 5864 5865 5866
5882 5882 5881 5880 5879 5879 5880 5880 5880 5881 5881 5881 5882 5882 5881 5881 5880 5879 5877 5876 5874 5873 5871 5870 5868 5866 5864 5862 5860 5859 5858 5857 5856 5856 5855 5854 5854 5853 5852 5853 5854 5854 5854 5855 5856 5857 5858 5859 5860
5880 5880 5880 5879 5878 5877 5879 5878 5878 5878 5878 5878 5878 5878 5877 5876 5875 5874 5872 5871 5869 5867 5865 5864 5862 5861 5858 5856 5855 5854 5852 5851 5851 5850 5850 5848 5847 5847 5847 5847 5847 5846 5847 5847 5848 5850 5850 5852 5853
5880 5881 5880 5878 5876 5876 5876 5876 5875 5874 5874 5874 5874 5873 5873 5872 5871 5869 5867 5865 5863 5862 5859 5858 5857 5855 5853 5851 5850 5848 5847 5846 5845 5844 5843 5842 5841 5841 5841 5841 5840 5840 5840 5840 5841 5842 5843 5845 5846
5880 5879 5878 5876 5875 5874 5874 5873 5872 5871 5871 5871 5870 5870 5868 5867 5866 5864 5862 5860 5858 5855 5854 5853 5851 5849 5847 5846 5844 5842 5841 5840 5839 5838 5837 5835 5835 5834 5834 5834 5833 5833 5833 5833 5833 5834 5836 5837 5838
5877 5877 5876 5875 5873 5873 5872 5871 5870 5869 5868 5868 5867 5866 5864 5863 5861 5859 5857 5855 5852 5850 5849 5847 5845 5843 5841 5840 5838 5836 5835 5833 5832 5831 5830 5828 5828 5827 5827 5826 5826 5826 5825 5826 5826 5827 5828 5829 5831
5876 5875 5874 5873 5872 5871 5871 5870 5868 5867 5866 5865 5864 5862 5861 5859 5857 5855 5853 5850 5848 5845 5843 5841 5840 5838 5836 5834 5832 5830 5828 5826 5825 5823 5822 5821 5820 5819 5818 5818 5817 5817 5817 5818 5818 5819 5820 5821 5822
5875 5874 5873 5872 5871 5870 5869 5868 5867 5865 5863 5862 5861 5859 5858 5855 5853 5851 5848 5846 5843 5841 5839 5837 5835 5833 5830 5828 5826 5824 5822 5820 5818 5816 5815 5813 5812 5811 5810 5809 5809 5808 5808 5809 5809 5810 5811 5812 5813
5874 5873 5872 5871 5871 5869 5869 5867 5865 5863 5861 5860 5858 5856 5855 5852 5850 5847 5845 5842 5839 5837 5835 5832 5830 5827 5824 5822 5819 5817 5815 5813 5811 5809 5807 5805 5804 5802 5801 5800 5800 5799 5799 5799 5799 5800 5801 5802 5803
5873 5872 5871 5870 5869 5868 5867 5866 5865 5861 5860 5858 5856 5855 5853 5850 5847 5845 5842 5839 5836 5833 5830 5828 5825 5822 5819 5816 5813 5811 5808 5806 5803 5801 5799 5797 5795 5794 5792 5791 5790 5790 5789 5789 5789 5790 5791 5792 5793
5872 5871 5870 5869 5868 5868 5866 5865 5864 5861 5859 5857 5855 5853 5850 5848 5845 5842 5839 5836 5833 5830 5827 5824 5820 5817 5814 5811 5808 5805 5802 5799 5797 5794 5791 5789 5787 5785 5783 5781 5780 5779 5778 5778 5778 5779 5780 5781 5782
5871 5871 5871 5870 5869 5868 5865 5864 5863 5860 5858 5856 5854 5851 5849 5846 5843 5840 5837 5834 5831 5827 5823 5820 5816 5812 5809 5805 5802 5799 5796 5793 5790 5787 5783 5780 5778 5775 5773 5771 5769 5768 5767 5767 5767 5768 5769 5770 5771
5869 5870 5871 5871 5870 5867 5864 5863 5862 5859 5857 5855 5852 5850 5847 5844 5841 5838 5834 5831 5827 5823 5819 5815 5811 5808 5804 5800 5797 5794 5790 5786 5783 5779 5776 5772 5769 5766 5763 5761 5759 5757 5756 5756 5755 5756 5757 5758 5759
5868 5868 5868 5868 5867 5866 5865 5863 5860 5858 5856 5853 5851 5848 5846 5842 5839 5835 5832 5828 5824 5820 5816 5811 5807 5803 5799 5795 5791 5788 5784 5780 5776 5772 5768 5764 5761 5757 5754 5751 5748 5746 5745 5744 5743 5743 5744 5745 5746
5868 5867 5867 5867 5866 5867 5865 5862 5860 5857 5855 5852 5850 5847 5844 5841 5837 5833 5829 5825 5821 5816 5812 5807 5803 5799 5794 5790 5786 5781 5777 5773 5769 5764 5760 5756 5752 5748 5745 5741 5738 5736 5734 5732 5731 5731 5731 5732 5733
5867 5866 5865 5865 5865 5865 5864 5863 5859 5856 5854 5851 5848 5845 5842 5839 5835 5831 5826 5822 5818 5813 5808 5804 5799 5794 5790 5785 5780 5776 5771 5767 5762 5757 5752 5748 5743 5739 5735 5732 5728 5725 5722 5720 5719 5718 5718 5719 5720
5865 5864 5864 5864 5863 5862 5862 5862 5856 5854 5852 5849 5846 5843 5840 5836 5832 5828 5823 5819 5814 5809 5805 5800 5795 5790 5785 5780 5775 5770 5765 5760 5755 5750 5745 5740 5735 5731 5726 5722 5718 5714 5711 5709 5706 5705 5705 5705 5706
Wind_Speed
9 8 8 8 8 7 7 7 7 6 6 6 5 4 4 4 4 4 5 5 5 4 4 4 4 4 4 4 4 4 4 4 3 2 2 2 2 2 2 2 2 2 2 2 2 2 3 3 3
10 9 9 9 8 7 10 9 8 8 7 7 6 6 6 6 5 5 6 6 6 6 5 5 5 6 6 6 6 5 5 5 5 4 4 4 4 3 3 2 2 2 2 2 2 2 1 1 1
11 10 10 10 9 9 12 11 10 10 9 8 8 8 8 7 6 6 7 7 7 7 7 7 7 7 8 8 7 7 7 7 7 6 6 6 5 5 5 5 4 4 4 4 4 4 3 3 2
12 12 11 11 11 13 13 12 11 11 10 9 9 9 9 8 8 8 8 9 9 9 9 9 9 9 9 9 9 9 8 9 9 8 8 8 7 7 7 7 7 7 6 6 6 6 6 5 5
14 14 13 13 14 15 14 14 12 12 11 11 11 11 11 10 9 10 10 10 9 10 10 10 10 10 10 11 10 10 10 10 10 10 10 10 10 9 9 10 10 9 9 8 8 7 7 7 7
16 16 14 15 16 17 16 16 15 14 13 12 12 12 12 11 11 10 10 11 11 11 11 11 11 12 12 12 12 12 12 12 12 12 12 12 12 12 11 12 12 11 11 10 10 9 9 9 9
18 17 17 17 18 19 19 18 17 16 16 14 13 14 14 13 12 12 12 12 12 12 13 13 13 13 13 14 14 15 15 15 15 14 14 14 15 15 14 14 13 13 12 12 12 13 12 12 11
19 19 19 19 20 21 22 20 19 18 17 16 16 16 16 15 14 13 14 13 13 14 15 15 15 15 16 16 16 17 17 17 17 17 17 17 17 17 17 16 15 15 15 14 14 14 15 14 14
20 20 20 21 22 23 23 22 21 19 18 18 18 18 18 17 16 15 16 16 15 16 17 18 17 17 18 18 18 19 19 19 19 20 20 20 20 20 19 18 18 17 17 17 16 16 16 17 17
20 20 21 22 22 23 23 23 22 21 20 19 19 18 18 18 17 17 17 17 17 18 19 19 19 18 18 19 21 22 21 21 21 21 21 21 22 22 21 21 20 20 20 19 19 19 18 18 18
18 19 20 21 22 22 22 22 21 21 21 20 19 18 19 19 19 18 18 19 20 20 21 21 20 19 20 21 22 22 22 22 22 23 24 24 23 24 24 23 23 22 22 22 22 21 21 20 20
16 17 18 19 20 20 20 21 21 21 22 21 20 20 20 21 21 20 20 21 22 22 22 22 21 21 22 22 23 23 23 22 22 22 23 25 23 24 25 25 24 24 24 24 24 24 23 22 22
14 14 15 16 17 18 19 19 19 20 22 21 20 20 20 21 22 22 22 23 23 23 24 23 22 23 23 23 23 22 20 21 23 24 25 25 24 25 26 25 26 27 26 26 26 25 25 24 24
12 12 12 12 13 15 16 17 17 19 20 21 21 21 21 22 22 22 23 23 23 24 24 24 24 24 24 24 23 23 21 21 22 24 25 25 24 25 28 29 29 27 27 29 29 29 27 26 25
11 10 10 11 11 11 12 14 15 17 19 20 20 21 21 22 21 22 23 23 24 25 25 26 25 24 24 25 24 24 24 24 24 25 25 26 26 25 26 27 29 30 30 31 31 31 31 29 28
10 10 10 11 10 10 10 11 13 14 16 17 18 19 20 21 21 22 23 23 25 26 26 26 24 25 24 23 23 24 24 24 25 25 25 25 25 25 26 27 27 29 30 31 32 32 31 30 29
11 9 10 12 10 9 9 10 12 13 15 16 17 18 19 20 21 22 23 25 26 27 26 25 23 23 23 23 24 25 24 25 25 25 26 26 26 26 26 27 27 29 29 29 30 32 31 31 30
8 8 9 10 9 9 9 10 11 12 14 15 16 18 19 20 21 22 23 24 25 24 22 22 22 23 23 23 24 24 24 25 25 26 26 26 26 27 27 28 28 28 29 29 30 30 31 31 31
7 8 8 8 9 10 11 11 11 12 12 13 15 17 18 19 19 19 20 21 21 21 21 21 22 22 22 23 23 24 25 25 25 26 26 26 27 27 28 28 29 29 30 30 30 31 31 32 33
7 7 8 9 9 9 10 11 11 12 12 13 14 15 16 17 17 18 20 21 21 21 21 21 21 22 22 23 23 24 25 26 26 26 27 27 28 28 29 30 31 31 32 32 33 33 34 34 35
7 8 9 9 8 9 10 10 10 11 11 12 13 14 15 16 16 17 18 18 19 19 20 20 21 22 22 23 24 25 26 26 26 26 27 27 28 29 29 30 31 32 33 34 35 35 35 36 36
8 8 8 9 9 10 10 11 11 10 10 10 12 13 14 15 15 17 18 18 18 19 20 21 22 23 23 24 24 25 25 26 26 27 27 28 28 29 30 30 31 32 34 34 35 36 37 37 38
8 9 8 9 9 9 10 10 10 10 11 11 11 12 13 15 16 17 17 18 19 19 20 20 21 22 22 23 23 24 24 25 26 27 27 28 29 30 30 31 32 33 34 35 36 36 37 38 38
8 8 8 8 8 8 8 8 10 11 11 10 11 12 13 15 16 17 17 18 19 19 20 21 21 22 22 23 23 23 24 25 26 27 28 29 30 31 31 32 33 34 35 36 37 37 38 38 39
7 6 7 8 7 7 7 7 8 9 9 10 11 12 14 15 17 17 18 18 19 19 20 21 22 22 23 23 23 24 24 25 26 28 29 30 31 31 32 33 33 34 35 36 36 37 38 39 40
5 4 3 4 6 6 7 7 8 9 9 10 12 13 15 16 17 18 18 19 19 20 21 22 22 23 23 23 23 24 24 25 26 28 29 30 30 31 32 33 33 34 35 35 37 38 39 40 41
4 4 4 4 5 5 7 8 8 9 10 11 12 13 15 16 18 18 18 19 20 21 22 22 23 23 23 23 23 24 25 26 27 28 28 29 30 31 31 32 33 34 35 36 37 38 40 41 42
5 5 5 4 4 5 7 8 9 9 10 12 13 14 15 17 18 18 19 19 20 21 22 23 23 23 23 23 24 25 25 26 27 28 28 29 30 30 30 31 32 33 34 36 37 39 40 41 43
6 5 5 4 5 4 6 9 9 10 11 12 13 14 16 17 18 19 20 20 21 22 23 23 23 23 23 24 24 25 26 27 27 28 28 29 29 30 30 31 32 33 33 34 36 37 39 41 42
7 6 5 5 6 5 6 9 9 10 11 12 13 15 17 18 19 20 21 21 22 23 23 23 23 24 24 25 25 26 27 27 27 28 28 29 29 30 31 31 32 32 33 34 35 36 37 39 41
Wind_Direction
347 341 335 333 330 330 314 312 308 312 317 319 317 316 325 330 337 333 330 334 332 333 327 311 298 285 275 272 275 280 278 269 261 250 239 231 219 198 173 158 147 139 141 137 120 103 92 88 93
331 326 321 319 318 304 296 302 296 304 306 306 301 306 316 324 325 320 320 321 319 316 313 305 293 285 277 272 271 273 272 266 263 259 254 250 244 241 231 221 212 212 214 216 209 194 175 152 124
318 313 310 307 300 289 289 295 292 293 298 297 297 300 308 314 316 317 314 315 312 307 304 300 294 286 281 276 272 272 268 264 262 261 259 256 250 248 247 244 240 238 239 239 232 227 222 216 208
308 303 299 294 285 285 286 290 290 285 291 292 293 293 302 304 305 307 307 307 304 301 300 296 291 285 281 277 274 272 269 263 260 258 258 257 255 253 250 246 245 245 247 249 244 237 233 228 225
300 296 291 286 280 280 280 281 281 280 283 285 286 288 295 297 298 301 303 303 306 302 301 296 290 284 281 278 273 270 267 264 261 258 256 256 256 253 251 248 248 249 250 252 250 247 242 238 233
292 290 282 275 275 273 273 272 272 273 276 277 279 286 289 292 294 299 298 301 304 303 301 298 291 284 280 275 271 268 265 262 262 261 259 258 255 252 252 251 251 249 248 249 250 249 246 243 240
287 284 276 270 268 267 266 267 266 267 268 269 270 275 281 288 292 296 296 297 297 300 299 298 292 285 279 275 272 269 266 264 261 260 259 259 257 255 254 254 251 249 248 249 250 250 248 246 245
285 280 275 269 265 263 262 262 262 262 263 264 265 269 275 284 291 295 297 296 294 296 298 298 292 285 281 277 272 271 268 265 263 261 260 259 258 255 254 252 249 249 249 250 251 252 249 248 247
283 278 273 267 263 262 261 259 259 261 260 260 262 267 275 281 289 294 297 296 295 296 297 298 290 286 282 278 274 270 270 266 265 262 262 261 259 256 255 251 248 250 251 252 253 256 256 252 250
282 276 270 266 264 261 261 259 258 257 255 257 260 264 275 281 286 291 294 294 295 297 296 296 291 289 285 280 276 273 271 270 267 264 263 262 260 257 255 252 251 251 253 255 255 257 258 256 253
286 278 272 268 264 262 260 258 256 253 253 256 259 263 271 278 285 289 290 290 292 293 293 292 290 287 286 282 279 276 274 273 273 267 266 264 262 259 257 256 254 254 256 258 259 260 260 258 256
292 286 280 274 269 264 259 257 256 254 255 257 259 264 272 278 283 288 289 289 291 292 291 289 288 288 288 285 280 278 278 279 276 271 270 267 265 262 258 255 257 257 257 259 260 261 261 261 259
301 297 289 281 274 266 260 257 257 254 254 256 260 265 272 279 282 286 287 288 289 290 292 290 286 285 285 287 282 279 279 281 279 274 273 274 271 266 261 257 259 258 257 258 260 261 262 261 259
314 310 304 296 286 275 266 263 259 258 258 260 262 266 271 277 282 284 286 287 286 289 289 289 285 283 281 284 285 284 281 281 278 277 274 271 271 271 264 261 260 260 260 260 260 260 259 259 257
325 324 319 312 304 291 278 269 266 263 262 263 265 268 273 278 283 284 284 285 285 287 287 289 287 286 287 285 282 282 282 284 282 282 279 275 274 274 268 265 262 262 263 260 259 259 258 258 259
332 332 324 313 307 298 286 276 274 270 267 268 270 274 278 280 282 283 285 286 288 289 288 288 286 286 286 285 284 283 283 282 280 281 282 281 279 278 273 270 268 266 265 263 260 259 258 258 260
330 321 308 306 307 303 290 282 280 277 274 274 276 278 281 283 285 287 288 288 289 289 287 286 286 285 286 287 287 285 285 284 282 281 282 282 279 278 274 272 271 269 268 266 262 258 256 256 258
306 305 304 307 308 301 292 290 290 285 280 278 278 281 286 289 292 292 291 291 291 292 290 288 289 291 291 290 289 288 287 285 283 283 282 282 279 278 275 271 269 269 268 267 263 258 256 256 256
315 310 310 309 306 301 298 298 299 298 294 288 288 290 291 297 297 296 297 298 297 299 297 295 294 294 294 292 292 290 289 288 287 285 283 282 279 276 273 271 269 267 266 265 264 259 257 256 255
327 322 319 317 314 309 308 310 311 304 297 294 293 297 300 302 304 302 302 302 303 303 302 302 299 298 297 296 295 293 291 290 289 286 283 282 280 277 274 271 269 267 266 264 262 260 257 256 254
333 329 322 318 319 321 321 319 318 315 304 301 300 304 309 309 309 310 311 310 308 306 306 305 303 302 300 299 297 295 293 291 289 287 285 283 282 279 277 273 271 268 266 264 262 260 258 257 255
319 322 319 318 319 317 320 323 326 325 319 314 315 318 319 321 322 321 320 319 314 311 309 309 308 306 304 302 299 297 296 293 291 290 288 286 284 282 279 276 273 270 267 264 263 261 259 258 256
312 317 319 318 321 321 323 328 331 333 331 329 329 331 331 331 331 329 327 324 321 318 316 313 312 310 308 306 304 301 299 297 295 293 290 288 286 284 281 278 275 271 268 265 263 261 259 257 256
311 315 319 328 336 330 329 334 331 336 338 337 339 339 337 335 333 330 328 325 322 319 317 316 315 314 312 309 306 304 302 300 298 296 293 291 289 286 284 281 277 273 270 266 263 261 259 257 256
317 329 343 341 335 326 335 338 329 334 339 342 343 341 339 337 333 330 327 325 324 323 322 320 318 316 314 312 308 306 304 302 301 299 297 295 293 290 287 284 281 276 272 268 264 261 259 257 255
325 333 327 318 314 322 332 336 333 341 343 343 342 340 338 335 333 331 329 328 328 327 325 323 322 319 316 313 311 309 307 305 304 303 301 298 296 293 291 287 284 280 275 270 266 262 259 257 256
320 320 322 334 335 337 331 334 335 339 342 342 340 339 337 336 334 334 333 332 331 330 328 327 324 322 319 317 315 313 311 310 308 307 305 301 298 295 292 289 286 282 278 273 269 265 261 258 256
307 306 316 326 323 330 326 327 329 333 336 338 338 338 337 337 336 336 335 334 333 333 332 330 328 325 324 322 320 318 317 315 314 312 309 306 303 298 295 293 290 285 281 276 271 267 263 260 257
303 303 306 309 312 323 315 314 323 329 331 333 335 336 337 337 337 337 337 337 337 337 336 333 331 329 327 327 325 323 321 319 318 316 313 310 307 303 299 296 292 288 284 280 275 270 265 261 258
294 295 297 304 309 315 316 311 321 326 330 332 333 335 337 338 339 339 339 340 340 340 339 337 336 334 332 331 329 327 325 324 322 321 318 315 312 308 304 300 296 291 287 282 278 273 268 263 259